User: anonymous   Login
Location: Caltech
(34.1382°N, 118.1253°W)
Time: 00:59:22
(UTC-08:00)
Language:

KITSAT 1 - Orbit

View from above orbital plane
View from above orbital plane
View from above satellite
View from above satellite

Ground track
Ground track

The orbit data is extracted from the following two-line orbital elements,

1 22077U 92052B   17054.80391932 -.00000066 +00000-0 -17131-4 0  9999
2 22077 066.0835 204.0526 0002738 355.2586 106.4535 12.86517291152432
Epoch (UTC): 23 February 2017 19:17:38
Eccentricity: 0.0002738
inclination: 66.0835°
perigee height: 1313 km
apogee height: 1317 km
right ascension of ascending node: 204.0526°
argument of perigee: 355.2586°
revolutions per day: 12.86517291
mean anomaly at epoch: 106.4535°
orbit number at epoch: 15243

The dashed part of the orbit path shows where the satellite is in the earth's shadow,  

DLR